This demonstration page uses our WeatherBlox Daily Observations layout. Learn more.

Left ArrowRight Arrow

39.29038, -76.61219

Hourly Observations for May 11, 2021

Temp ( °F °C ) Dew Point ( °F °C ) Humidity (%) Winds ( mph kmh ) Pressure ( in mb ) Visibility ( mi km ) Precip ( " mm )
12:54 am 00:54 Partly Cloudy 50 10 37 2.8 61 61 N N/A 30.05 1018 10 16 N/A
1:54 am 01:54 Mostly Cloudy 49 9.4 38 3.3 66 66 W 3 6 30.05 1018 10 16 N/A
2:54 am 02:54 Cloudy 51 10.6 38 3.3 61 61 N N/A 30.05 1018 10 16 N/A
3:54 am 03:54 Cloudy 51 10.6 39 3.9 64 64 N N/A 30.05 1018 10 16 N/A
4:54 am 04:54 Cloudy 52 11.1 37 2.8 57 57 N N/A 30.07 1018 10 16 N/A
5:54 am 05:54 Mostly Cloudy 48 8.9 41 5 77 77 N N/A 30.08 1019 10 16 N/A
6:54 am 06:54 Mostly Cloudy 49 9.4 41 5 74 74 N N/A 30.10 1019 10 16 N/A
7:54 am 07:54 Partly Cloudy 56 13.3 43 6.1 62 62 W 3 6 30.11 1020 10 16 N/A
8:54 am 08:54 Partly Cloudy 60 15.6 38 3.3 44 44 VRB 5 7 30.12 1020 10 16 N/A
9:54 am 09:54 Partly Cloudy 63 17.2 35 1.7 35 35 NW 5 7 30.11 1020 10 16 N/A
10:54 am 10:54 Partly Cloudy 64 17.8 37 2.8 37 37 W 9 15 30.11 1020 10 16 N/A
11:54 am 11:54 Mostly Sunny 66 18.9 38 3.3 36 36 W 6 9 30.10 1019 10 16 N/A
12:54 pm 12:54 Partly Cloudy 68 20 38 3.3 33 33 W 16 26 30.09 1019 10 16 N/A
1:54 pm 13:54 Mostly Cloudy 66 18.9 38 3.3 36 36 NW 10 17 30.08 1019 10 16 N/A
2:54 pm 14:54 Mostly Cloudy 66 18.9 38 3.3 36 36 WNW 10 17 30.07 1018 10 16 N/A
3:54 pm 15:54 Mostly Cloudy 67 19.4 39 3.9 36 36 W 17 28 30.05 1018 10 16 N/A
4:54 pm 16:54 Cloudy 67 19.4 40 4.4 37 37 NW 10 17 30.06 1018 10 16 N/A
5:54 pm 17:54 Mostly Cloudy 65 18.3 41 5 42 42 NW 10 17 30.06 1018 10 16 N/A
6:54 pm 18:54 Mostly Cloudy 63 17.2 39 3.9 41 41 W 13 20 30.07 1018 10 16 N/A
7:54 pm 19:54 Mostly Cloudy 62 16.7 34 1.1 35 35 WNW 12 19 30.08 1019 10 16 N/A
8:54 pm 20:54 Mostly Cloudy 59 15 34 1.1 39 39 WNW 7 11 30.10 1019 10 16 N/A
9:54 pm 21:54 Mostly Cloudy 58 14.4 34 1.1 41 41 WNW 9 15 30.13 1020 10 16 N/A
10:54 pm 22:54 Mostly Cloudy 57 13.9 33 0.6 41 41 WNW 8 13 30.14 1021 10 16 N/A
11:54 pm 23:54 Mostly Cloudy 56 13.3 30 -1.1 37 37 NW 9 15 30.17 1022 10 16 N/A

Powered by AerisWeather